DMSP 5D-2 F11 DEB, 28315

Orbit data source: Space-Track

DMSP 5D-2 F11 DEB, 28315 is space debris in SSO originally from a launch on Thu, 28 Nov 1991 UTC launched from the Air Force Western Test Range (AFWTR). Debris objects in space refer to the collection of defunct objects orbiting the Earth. Examples of debris include non-operational satellites, rocket bodies, and fragments generated from explosions, collisions, or faulty payload assembly.

Loading next visibility...
Identifier
28315, 1991-082AC
Orbit
SSO
Country
Flag of USUS
Related business
Manufacturer
Unknown
Mission
Spacecraft
Bus & Motor
Unknown
Mass
Unknown
Launch date (UTC)
1991-11-28 (34 years ago)
Launch vehicle
Unknown
Launch site
Air Force Western Test Range (AFWTR)
Object type
Payload
Rocket body
Debris
Shape & HBR
Unknown shape, 0.1 m
Radar Cross Section
Small (<0.1 m²)

Expand to show TLE details & history
Last TLE update: 9 hours ago

TLE from 9 hours ago
0 DMSP 5D-2 F11 DEB
1 28315U 91082AC  26121.23177097  .00004414  00000-0  19036-2 0  9991
2 28315  98.7880 221.8352 0098632   1.9139  27.0835 14.22423862122986
Epoch: 2026-05-01T05:33Z
TLE epoch observation values (Epoch: 2026-05-01T05:33:45.011Z)
Latitude
29.18673°
Longitude
-85.69657°
Altitude
757.735 km
Speed
7.511 km/s
True Right ascension
14h 27m 37s
True Declination
29° 02' 26"
Sunlit
Object was in full shadow at epoch
Visualization orbit readout
Latitude
Unknown
Longitude
Unknown
Altitude
Unknown
Speed
Unknown
Apparent Right ascension
Unknown
Apparent Declination
Unknown
Sunlit
N/A
Visualization observer readout
Local Sidereal Time
21:56:11
Azimuth
Unknown
Elevation
Unknown
Doppler factor
Unknown
Orbital elements
Apogee altitude
885.267 km
Perigee altitude
743.385 km
Semi-major axis
7,192.463 km
Eccentricity
0.00986
Inclination
98.788°
RAAN
221.8352°
Arg. of periapsis
1.9139°
True anomaly
27.60379°
Mean anomaly
27.0835°
Eccentric anomaly
27.34307°
Mean motion
3.55817 °/min
Orbital period
101.18 mins
BSTAR
0.0019036
Loading maneuver chart data...
Computing Atmospheric mass density...
Loading historical data...
Loading historical data...
Loading historical data...
Loading historical data...
Loading historical data...
Loading historical data...
Loading historical data...

Documentation

Showing up to 5 results
|